Location: Unspecified
(41.9031°N, 12.4386°E)
Time: 17:43:43
(UTC+02:00)

ISS - Pass Details

Date: 25 May 2020
Orbit: 417 x 420 km, 51.6° (Epoch: 26 May)

Event Time Altitude Azimuth Distance (km) Brightness Sun altitude
Rises 22:20:16 0° 305° (NW) 2,366 1.6 -16.1°
Reaches altitude 10° 22:22:51 10° 326° (NW) 1,502 0.4 -16.4°
Maximum altitude 22:25:15 18° 11° (N) 1,110 -1.1 -16.7°
Drops below altitude 10° 22:27:39 10° 57° (ENE) 1,501 -1.0 -16.9°
Enters shadow 22:28:26 - 65° (ENE) 1,738 -0.8 -17.0°
